User: anonymous   Login
Location: Amarillo Post Office Jordan Station
(35.1907°N, 101.9342°W)
Time: 22:37:44
(UTC+00:00)
Language:

Cosmos 2098 Rocket - Orbit

View from above orbital plane
View from above orbital plane
View from above satellite
View from above satellite

Ground track
Ground track

The orbit data is extracted from the following two-line orbital elements,

1 20775U 90078B   21103.16221616  .00002235  00000-0  10751-3 0  9996
2 20775  82.9276 339.2827 0568179 345.6342  12.9241 14.35573166548719
Epoch (UTC): 13 April 2021 03:53:35
Eccentricity: 0.0568179
inclination: 82.9276°
perigee height: 367 km
apogee height: 1179 km
right ascension of ascending node: 339.2827°
argument of perigee: 345.6342°
revolutions per day: 14.35573166
mean anomaly at epoch: 12.9241°
orbit number at epoch: 54871

The dashed part of the orbit path shows where the satellite is in the earth's shadow,  

DLR